User: anonymous   Login
Location: Unspecified
(0.0000°N, 0.0000°E)
Time: 22:41:08
(UTC+00:00)
Language:

ASTRA 1KR - Orbit

View from above orbital plane
View from above orbital plane
View from above satellite
View from above satellite

Ground track
Ground track

The orbit data is extracted from the following two-line orbital elements,

1 29055U 06012A   17116.72271417 +.00000109 +00000-0 +00000-0 0  9997
2 29055 000.0494 276.5435 0001087 046.0547 171.6592 01.00270059040272
Epoch (UTC): 26 April 2017 17:20:42
Eccentricity: 0.0001087
inclination: 0.0494°
perigee height: 35782 km
apogee height: 35791 km
right ascension of ascending node: 276.5435°
argument of perigee: 46.0547°
revolutions per day: 1.00270059
mean anomaly at epoch: 171.6592°
orbit number at epoch: 4027

The dashed part of the orbit path shows where the satellite is in the earth's shadow,  

DLR